Wind_Speed
9 8 8 8 6 8 9 11 12 11 12 16 19 23 28 28 29 29 30 28 25 24 25 29 28 30 27 24 26 33 39 44 47 47 46 43 38 35 32 31 27 22 16 9 15 12 4
10 8 9 9 9 12 11 15 15 18 19 23 24 28 34 35 35 36 31 30 27 25 27 28 33 35 35 33 30 32 38 43 48 51 50 45 43 40 36 36 32 28 19 12 13 23 9
12 11 11 10 12 13 16 17 18 21 25 28 31 34 35 35 36 34 34 30 28 29 29 29 34 36 41 40 37 31 36 41 48 53 54 50 47 44 41 39 36 35 25 16 10 17 26
13 12 12 13 14 16 19 21 21 24 28 31 33 35 35 37 39 38 35 32 30 28 31 33 37 36 39 42 42 40 37 36 43 52 55 54 51 50 46 43 40 39 26 17 13 16 20
12 12 13 15 17 20 23 25 26 28 30 31 31 34 38 40 39 37 38 31 29 30 33 36 37 39 37 40 44 46 45 41 40 46 52 57 57 55 52 48 47 42 34 30 19 29 21
13 14 16 17 21 23 25 27 29 30 29 32 34 37 42 40 41 41 38 32 31 34 35 37 38 38 38 42 44 42 49 47 43 40 47 54 61 60 57 54 53 49 43 38 27 29 30
12 14 16 20 23 26 27 29 31 33 34 37 39 42 43 41 41 44 37 32 29 35 39 42 46 43 43 44 48 50 52 51 48 47 45 49 59 66 63 57 57 56 53 51 39 41 31
17 19 21 23 26 27 29 32 35 37 39 40 41 45 43 42 44 41 36 28 28 36 43 49 53 52 53 52 53 55 59 59 56 56 53 53 57 67 66 64 63 61 54 60 48 33 37
21 23 24 26 28 30 34 36 38 39 42 42 44 45 43 45 44 37 33 26 32 41 47 53 55 47 37 40 49 64 71 72 69 64 65 64 59 65 70 70 69 66 62 60 60 47 40
25 26 28 30 31 33 36 39 40 41 42 43 46 46 45 46 41 33 26 28 36 44 49 49 53 47 30 28 38 52 69 81 80 76 72 68 65 64 70 73 73 70 65 60 61 55 48
28 30 32 33 35 37 40 40 41 42 44 46 48 47 46 43 33 25 22 30 38 43 43 46 54 52 31 22 24 38 52 68 88 88 81 74 70 66 65 74 78 75 69 69 56 56 53
32 34 35 37 38 40 42 44 44 44 46 48 46 46 43 34 25 17 22 29 36 36 39 44 53 58 36 24 21 26 36 50 70 94 94 86 78 74 69 70 77 77 73 73 71 62 60
34 35 37 38 39 41 44 45 45 45 43 44 45 42 36 25 14 16 22 29 34 36 40 45 53 59 41 27 20 24 25 38 56 80 98 95 87 82 75 67 73 81 78 72 64 65 61
35 37 38 38 39 40 42 42 39 41 42 44 41 36 28 20 13 18 22 28 33 38 41 47 52 59 53 28 22 23 21 31 50 70 87 97 90 85 81 74 72 85 85 81 78 70 64
39 38 39 38 37 38 38 40 41 42 45 43 37 29 21 14 14 20 23 28 33 38 43 45 50 56 61 34 26 21 19 27 43 58 74 90 95 88 86 82 78 84 89 88 87 82 70
40 42 39 40 40 43 43 44 45 46 42 38 31 24 17 13 16 21 23 29 33 38 43 46 47 52 59 48 28 21 19 21 36 52 68 85 93 93 90 88 80 79 90 92 89 81 74
43 43 44 44 45 46 45 48 47 44 38 33 27 20 16 14 19 22 26 29 33 37 42 45 46 49 54 52 31 24 17 17 30 46 61 78 92 97 94 87 83 81 85 92 91 80 77
47 48 49 50 49 46 45 45 43 39 37 31 25 18 16 16 22 27 28 29 33 36 41 43 45 46 48 54 52 27 20 13 24 40 54 71 87 95 96 91 88 87 84 90 93 82 76
50 49 51 51 48 44 43 40 37 37 34 27 22 17 18 22 25 28 29 32 33 34 39 41 43 46 44 47 49 40 22 17 17 32 44 64 81 91 97 94 92 88 83 85 89 85 80
51 51 48 46 42 41 40 38 37 37 28 23 24 22 22 23 25 28 32 35 36 37 39 41 41 44 45 46 48 48 28 19 15 25 42 57 74 86 93 95 91 87 83 84 88 90 85
46 45 44 42 41 39 38 38 34 31 26 25 23 25 24 23 29 35 36 38 40 41 41 42 42 41 43 43 46 50 39 22 20 19 35 53 65 81 87 91 92 87 85 85 87 88 87
45 44 42 40 36 36 36 30 28 25 26 27 25 31 33 36 42 43 42 42 42 45 46 46 42 42 42 43 43 48 42 25 26 26 25 44 62 75 85 89 90 86 85 85 86 89 89
41 40 38 35 33 32 30 28 31 29 27 31 34 37 40 43 47 51 52 53 50 46 48 47 45 45 42 43 44 45 42 34 28 32 33 39 56 70 81 88 90 87 86 86 88 90 91
42 40 38 35 33 34 37 39 37 36 36 37 41 42 45 49 51 54 55 53 52 50 47 47 44 43 43 42 44 48 45 42 27 29 38 41 51 66 79 86 87 87 87 88 86 91 93
46 42 42 40 39 39 39 39 39 41 41 42 45 44 47 46 47 43 40 45 44 44 42 42 41 43 43 42 46 49 48 45 30 26 34 45 49 60 74 84 85 90 89 89 92 94 97
50 49 50 47 45 46 45 44 45 46 45 44 46 47 48 43 37 41 46 48 50 48 43 40 37 38 42 45 48 53 52 45 31 28 31 42 51 55 66 78 86 91 94 95 95 96 98
52 51 48 44 44 46 47 46 46 46 46 46 42 41 44 41 36 44 48 51 51 43 37 34 33 37 41 45 52 55 58 39 29 28 30 36 45 54 59 70 80 90 96 98 97 97 99
51 52 51 47 44 44 42 43 46 44 41 37 40 41 41 37 38 47 51 49 47 35 29 28 35 38 42 47 53 56 51 42 33 28 31 34 40 50 60 63 76 87 92 97 97 99 100
51 50 53 53 49 46 42 39 39 40 38 39 40 38 37 39 41 45 45 42 38 31 24 31 33 38 47 54 55 56 47 44 31 26 29 33 38 44 55 64 66 78 89 92 98 100 101
Wind_Direction
219 218 246 267 287 308 317 322 308 301 307 316 321 334 330 328 325 323 318 317 306 294 279 268 263 262 258 247 236 226 222 218 215 215 213 212 206 206 206 193 190 175 162 162 179 186 275
223 240 265 270 292 307 314 318 297 296 302 313 315 323 323 320 321 320 312 307 307 292 282 267 260 255 253 249 239 227 223 220 216 214 213 211 208 206 205 192 194 171 155 170 211 229 204
231 247 267 276 298 301 310 314 302 294 300 308 311 315 318 318 321 318 318 308 305 298 287 278 271 262 258 253 249 235 228 224 217 213 211 211 210 206 204 197 193 178 178 194 194 187 215
245 263 275 287 294 301 305 309 308 298 302 306 309 314 317 322 317 317 314 306 300 296 289 281 277 277 272 262 258 247 238 230 224 216 211 210 210 209 203 198 194 195 176 203 189 190 192
266 269 276 287 291 301 305 309 312 311 310 311 314 315 319 318 317 317 316 307 296 290 284 286 287 284 276 267 258 251 245 236 228 217 214 211 211 210 203 198 197 195 175 188 187 205 194
268 272 284 292 299 306 310 314 314 316 318 317 318 319 318 319 320 318 313 301 293 288 293 295 291 285 274 264 256 237 243 235 229 220 213 215 213 209 205 199 197 201 175 182 186 197 205
286 293 289 291 301 306 310 314 313 316 317 319 317 318 320 318 318 318 309 301 296 303 304 304 301 292 280 261 249 241 232 230 230 219 212 215 216 210 205 200 200 201 189 187 190 192 206
283 288 291 296 303 305 307 310 313 313 315 316 316 319 317 318 316 314 304 300 301 304 310 308 302 294 282 265 249 240 232 224 222 223 214 215 217 210 206 202 202 201 195 195 188 190 211
289 292 294 295 300 304 306 309 310 311 312 313 316 317 316 318 314 307 301 297 306 312 313 314 314 307 284 260 246 237 231 230 223 218 220 216 213 209 208 204 204 201 196 200 203 203 205
290 294 297 299 299 299 301 304 306 309 310 311 314 316 315 314 311 304 297 306 310 318 320 323 330 324 305 268 244 237 229 225 227 218 215 214 211 207 208 207 203 204 199 196 209 204 207
293 296 298 299 299 302 302 303 304 308 311 311 312 313 315 313 305 301 304 311 320 324 326 334 342 337 320 291 256 244 235 225 217 220 213 212 214 207 208 209 203 203 201 200 197 196 207
294 296 299 303 303 305 306 306 307 308 310 311 312 313 313 310 300 303 316 321 326 326 334 341 345 346 335 317 287 276 243 226 219 215 215 211 211 206 208 208 208 205 204 204 210 211 209
296 300 303 305 307 308 308 309 309 309 311 313 313 313 311 301 296 317 322 327 336 333 338 345 348 351 344 335 314 300 251 221 213 214 212 211 209 206 205 206 209 207 206 202 198 194 201
302 303 306 309 310 310 311 312 313 314 313 316 314 312 307 294 287 320 320 329 340 347 344 346 350 355 354 338 326 309 263 218 209 210 210 207 206 203 205 205 209 207 207 201 201 192 194
301 301 303 308 313 314 314 315 316 315 316 318 315 312 299 284 297 313 318 326 340 342 350 351 351 354 355 343 335 318 280 222 209 210 210 209 204 200 205 208 207 208 208 204 208 207 208
297 298 302 306 310 311 312 313 316 316 318 319 318 308 288 275 302 316 317 326 335 341 347 352 352 354 357 356 334 324 310 233 214 211 209 208 205 201 203 208 210 211 206 208 209 208 210
293 296 299 303 306 306 311 313 316 317 319 320 316 304 277 282 300 313 319 325 331 338 342 348 353 351 356 357 343 329 320 257 219 212 211 207 204 207 204 207 210 212 208 210 208 207 210
292 292 297 300 303 304 308 312 314 316 319 320 313 298 279 283 304 310 312 317 327 333 337 341 348 348 354 358 358 334 315 311 233 215 211 208 204 206 208 208 210 212 211 209 208 205 207
290 292 294 298 300 302 306 309 310 313 312 315 309 297 284 283 290 301 312 314 322 328 330 335 341 346 351 354 357 352 314 294 257 221 214 210 206 204 210 210 211 212 213 210 208 208 206
289 291 292 294 299 301 302 304 305 307 299 306 307 300 297 294 300 308 313 314 317 321 325 329 335 340 344 349 350 352 328 300 280 237 218 211 208 206 209 212 213 212 213 212 208 208 206
289 289 290 292 295 299 297 300 303 299 286 292 301 297 294 296 299 305 308 310 313 316 318 322 330 333 338 339 344 348 347 296 270 256 229 216 211 209 209 212 215 210 210 211 209 208 209
287 288 289 291 294 292 295 298 302 301 281 284 291 296 293 293 297 300 302 301 306 310 313 315 322 326 331 332 337 342 342 310 272 254 235 224 216 211 213 211 214 214 212 211 210 209 210
286 287 289 288 288 288 291 291 296 296 293 289 288 289 290 294 297 297 296 297 297 302 306 309 316 319 323 326 330 334 331 321 276 255 241 226 219 215 214 215 213 212 213 212 212 210 211
280 281 283 285 286 286 288 290 291 289 290 290 291 294 298 299 299 299 303 304 303 300 298 299 307 313 318 321 324 327 326 326 293 256 240 230 223 219 216 217 213 212 213 213 214 214 213
282 280 280 283 283 286 288 289 289 293 291 292 295 298 308 303 303 305 307 312 314 311 303 297 300 307 314 318 320 323 321 321 296 271 241 229 223 223 220 218 216 215 214 214 215 215 215
277 275 277 280 282 286 287 287 287 291 294 294 296 302 306 300 302 304 305 310 313 306 298 296 298 304 312 315 317 318 317 318 298 275 251 233 226 222 221 220 219 217 217 215 217 217 216
274 274 275 276 281 285 287 287 290 293 296 296 298 299 298 298 304 305 309 312 315 306 297 293 301 304 308 313 316 315 317 312 298 276 251 239 228 222 223 219 221 221 220 219 217 218 218
272 269 272 276 278 278 283 284 286 287 287 286 292 291 291 296 302 305 309 312 314 309 299 298 300 305 310 313 314 314 315 309 294 272 255 238 230 222 221 219 219 221 222 221 219 221 221
271 273 268 268 274 273 275 281 285 279 282 285 284 289 289 292 302 307 307 311 313 313 303 297 300 310 316 318 319 318 316 306 294 267 253 241 231 222 219 221 220 221 222 223 224 222 222
Height
10935 10935 10935 10936 10936 10936 10935 10933 10932 10931 10930 10929 10927 10925 10922 10919 10916 10912 10909 10906 10903 10902 10901 10900 10901 10901 10903 10904 10905 10907 10910 10915 10922 10929 10936 10943 10950 10956 10962 10967 10970 10974 10978 10980 10983 10984 10985
10934 10934 10934 10935 10934 10934 10933 10932 10930 10929 10927 10925 10923 10921 10917 10914 10911 10907 10903 10899 10896 10894 10893 10892 10892 10893 10894 10896 10897 10900 10901 10906 10912 10919 10927 10938 10944 10951 10956 10961 10966 10972 10976 10979 10981 10982 10983
10932 10932 10932 10932 10932 10931 10930 10929 10927 10926 10923 10921 10918 10916 10912 10908 10904 10900 10895 10891 10890 10886 10884 10886 10885 10885 10885 10887 10888 10894 10896 10899 10903 10910 10920 10928 10937 10943 10949 10957 10962 10966 10972 10976 10978 10978 10982
10929 10930 10930 10930 10929 10928 10926 10925 10923 10921 10920 10917 10914 10910 10906 10902 10898 10892 10888 10885 10881 10880 10877 10875 10874 10876 10877 10878 10879 10884 10888 10891 10895 10902 10911 10920 10928 10934 10942 10949 10957 10962 10968 10975 10976 10978 10982
10928 10928 10928 10926 10925 10923 10922 10920 10919 10916 10914 10911 10908 10904 10900 10894 10890 10885 10880 10876 10873 10871 10868 10866 10866 10864 10865 10865 10866 10868 10876 10882 10886 10893 10904 10910 10915 10923 10933 10942 10949 10957 10962 10968 10973 10976 10977
10925 10925 10924 10923 10922 10919 10917 10915 10913 10910 10907 10905 10902 10897 10892 10886 10881 10876 10871 10866 10863 10860 10859 10857 10854 10852 10851 10851 10851 10855 10858 10867 10875 10884 10893 10899 10905 10912 10923 10932 10941 10949 10955 10961 10967 10973 10972
10922 10922 10920 10919 10917 10915 10912 10910 10907 10904 10901 10898 10894 10889 10883 10878 10873 10867 10861 10857 10853 10851 10848 10845 10840 10836 10833 10833 10835 10839 10842 10851 10860 10869 10879 10886 10893 10901 10912 10925 10930 10939 10946 10952 10960 10964 10965
10918 10917 10916 10914 10912 10909 10906 10904 10901 10897 10894 10890 10886 10880 10875 10869 10864 10857 10851 10847 10845 10842 10837 10830 10823 10816 10810 10812 10815 10820 10826 10835 10841 10849 10863 10869 10875 10890 10904 10912 10919 10928 10938 10945 10951 10957 10963
10913 10912 10911 10908 10906 10904 10901 10898 10894 10890 10886 10882 10877 10872 10866 10861 10854 10847 10842 10839 10837 10832 10824 10815 10804 10791 10784 10782 10785 10790 10799 10810 10821 10834 10840 10849 10864 10878 10888 10897 10907 10919 10930 10935 10943 10951 10958
10908 10906 10904 10902 10900 10897 10894 10891 10886 10883 10879 10874 10868 10863 10857 10851 10844 10839 10835 10832 10828 10820 10811 10800 10786 10772 10764 10761 10761 10761 10765 10781 10795 10809 10823 10835 10850 10860 10873 10886 10897 10909 10920 10931 10937 10944 10952
10902 10901 10898 10896 10893 10890 10886 10882 10878 10874 10870 10864 10859 10852 10847 10840 10835 10831 10829 10825 10818 10810 10801 10788 10773 10758 10748 10746 10744 10742 10741 10749 10766 10783 10803 10821 10836 10852 10864 10870 10885 10896 10910 10919 10926 10937 10944
10897 10895 10892 10889 10886 10883 10878 10873 10869 10865 10861 10855 10849 10842 10836 10831 10828 10825 10823 10819 10810 10801 10791 10780 10766 10749 10736 10732 10729 10726 10726 10732 10744 10757 10772 10796 10816 10835 10847 10864 10880 10891 10900 10910 10918 10926 10934
10890 10888 10885 10882 10879 10875 10869 10864 10860 10855 10850 10845 10839 10833 10827 10822 10822 10819 10817 10811 10803 10794 10782 10772 10759 10743 10729 10723 10721 10717 10715 10718 10725 10734 10750 10773 10797 10818 10835 10851 10866 10878 10888 10901 10909 10916 10925
10883 10880 10878 10874 10870 10867 10862 10856 10852 10847 10841 10836 10829 10824 10819 10816 10816 10812 10809 10805 10797 10787 10776 10763 10752 10738 10726 10718 10715 10712 10708 10710 10714 10719 10733 10752 10781 10805 10822 10835 10846 10857 10871 10887 10897 10905 10917
10875 10873 10870 10867 10863 10858 10853 10849 10843 10838 10832 10826 10820 10815 10812 10810 10809 10806 10802 10798 10791 10781 10772 10760 10749 10738 10724 10714 10709 10708 10705 10706 10708 10717 10732 10749 10768 10791 10808 10818 10828 10835 10854 10870 10879 10893 10905
10868 10865 10862 10858 10855 10850 10845 10840 10835 10829 10824 10818 10813 10808 10806 10805 10804 10800 10796 10791 10785 10777 10768 10758 10747 10738 10725 10714 10707 10705 10703 10703 10706 10710 10718 10736 10760 10777 10793 10804 10821 10833 10847 10856 10867 10887 10896
10860 10857 10853 10850 10847 10843 10838 10831 10826 10820 10817 10812 10807 10802 10800 10799 10797 10794 10789 10784 10778 10771 10764 10755 10747 10737 10728 10716 10707 10703 10702 10700 10701 10704 10713 10724 10747 10765 10778 10798 10809 10816 10829 10839 10856 10875 10883
10850 10848 10844 10841 10837 10834 10830 10824 10818 10813 10809 10806 10801 10797 10794 10793 10790 10787 10783 10778 10773 10766 10758 10752 10744 10736 10727 10718 10707 10702 10700 10700 10699 10701 10707 10716 10734 10752 10767 10782 10790 10799 10816 10831 10848 10864 10878
10840 10838 10835 10831 10828 10825 10821 10817 10812 10807 10803 10800 10797 10793 10790 10787 10784 10780 10776 10770 10766 10761 10755 10749 10741 10733 10728 10720 10711 10702 10699 10698 10698 10698 10703 10712 10725 10739 10751 10765 10775 10789 10808 10823 10840 10857 10868
10828 10826 10825 10822 10818 10815 10812 10808 10805 10800 10797 10794 10790 10788 10784 10780 10776 10772 10768 10762 10758 10754 10749 10744 10738 10730 10723 10716 10710 10703 10696 10696 10696 10697 10698 10704 10717 10729 10742 10752 10765 10783 10802 10815 10828 10838 10853
10816 10815 10813 10811 10808 10805 10802 10799 10796 10792 10790 10788 10785 10782 10780 10776 10771 10766 10763 10756 10750 10746 10743 10737 10733 10725 10720 10714 10707 10701 10697 10693 10692 10693 10696 10701 10710 10720 10727 10741 10751 10771 10786 10801 10815 10831 10840
10805 10803 10802 10801 10799 10796 10793 10790 10787 10785 10783 10781 10779 10775 10772 10768 10763 10758 10753 10749 10745 10738 10732 10728 10727 10720 10714 10708 10704 10698 10693 10690 10687 10688 10691 10695 10702 10709 10717 10728 10743 10763 10778 10788 10801 10813 10824
10794 10793 10791 10791 10789 10787 10784 10783 10781 10779 10777 10774 10772 10768 10764 10759 10754 10747 10742 10737 10735 10734 10724 10719 10716 10712 10708 10702 10697 10693 10688 10681 10679 10679 10681 10683 10689 10697 10705 10714 10726 10753 10766 10775 10786 10797 10809
10784 10782 10781 10781 10780 10778 10776 10773 10772 10770 10768 10765 10762 10759 10756 10751 10743 10737 10731 10726 10721 10719 10716 10709 10707 10702 10698 10692 10688 10681 10677 10672 10667 10667 10669 10673 10678 10684 10692 10702 10720 10740 10748 10762 10775 10786 10794
10773 10772 10770 10770 10769 10768 10765 10763 10761 10760 10759 10755 10752 10747 10742 10738 10733 10727 10722 10716 10710 10706 10702 10698 10697 10692 10687 10682 10676 10671 10664 10659 10656 10655 10656 10658 10664 10672 10680 10692 10709 10720 10735 10747 10755 10764 10775
10758 10758 10757 10757 10756 10755 10754 10752 10750 10749 10748 10744 10740 10736 10731 10726 10724 10717 10712 10707 10701 10694 10690 10687 10687 10682 10677 10671 10665 10658 10652 10647 10643 10641 10642 10644 10650 10658 10667 10680 10693 10701 10712 10723 10736 10747 10759
10742 10743 10743 10743 10743 10741 10740 10739 10737 10736 10735 10733 10728 10724 10720 10717 10716 10707 10701 10697 10690 10683 10678 10676 10677 10673 10667 10662 10654 10644 10636 10633 10630 10627 10627 10630 10636 10645 10653 10664 10675 10682 10690 10704 10721 10733 10740
10726 10727 10728 10729 10730 10729 10728 10726 10725 10724 10723 10722 10717 10713 10709 10707 10706 10697 10692 10687 10681 10674 10671 10669 10664 10661 10656 10651 10643 10633 10620 10614 10614 10613 10612 10615 10620 10628 10635 10644 10651 10663 10676 10689 10704 10713 10723
10711 10711 10713 10714 10715 10715 10715 10715 10713 10711 10711 10710 10706 10702 10700 10697 10696 10688 10684 10679 10672 10666 10664 10660 10657 10650 10643 10635 10627 10616 10606 10598 10597 10598 10598 10602 10606 10613 10620 10629 10638 10646 10659 10673 10681 10691 10704